Temp
9 9 9 9 8 8 8 8 8 8 8 8 8 8 8 8 8 8 8 8 8 8 8 8 8 8 8 8 8 8 8 8 7
10 9 9 9 8 8 8 8 8 8 8 8 8 8 8 8 8 8 8 8 8 8 7 7 8 8 8 8 8 8 8 7 8
9 9 9 9 8 8 8 8 8 8 8 8 8 8 8 8 8 8 8 8 8 8 8 7 7 7 8 8 7 7 8 7 7
9 9 9 9 9 8 8 8 8 8 8 8 8 8 8 8 8 8 8 8 8 8 8 8 8 7 7 7 7 7 7 7 7
9 9 9 9 8 8 8 8 7 7 8 8 8 8 8 8 8 8 8 8 8 8 8 8 8 7 7 7 7 7 7 7 6
9 9 8 8 8 8 8 7 7 7 7 8 8 8 8 8 8 8 8 8 8 8 8 8 7 7 7 7 7 7 7 6 6
8 8 8 8 8 8 7 7 7 7 7 7 8 8 8 8 8 8 8 8 8 8 7 7 7 7 7 7 6 6 6 6 6
8 8 8 8 8 8 7 7 7 7 7 7 7 7 7 8 8 8 8 7 7 7 7 7 7 7 7 7 7 7 6 6 6
8 8 7 7 7 7 7 7 7 7 7 7 7 7 7 7 8 7 7 7 7 7 7 7 7 7 7 6 6 6 6 6 6
7 7 7 7 7 7 6 6 7 7 7 7 7 7 7 7 7 7 7 7 7 6 6 6 6 6 6 6 6 5 5 5 5
7 7 6 6 6 6 6 6 6 6 6 6 6 6 7 7 7 7 6 6 6 6 6 5 6 6 6 5 5 5 5 5 5
7 6 6 6 6 6 6 6 6 6 6 6 6 6 6 6 6 6 6 6 5 5 5 5 5 5 5 5 5 4 4 4 4
6 6 6 6 6 6 6 6 6 6 6 6 6 6 6 6 6 6 6 6 6 5 5 5 5 5 4 4 4 4 4 3 3
6 6 6 6 6 6 5 5 5 5 5 5 6 6 6 6 6 6 6 6 5 5 5 5 5 5 4 4 3 3 3 3 3
5 5 5 5 5 5 5 5 5 5 5 6 6 6 5 5 5 5 5 5 5 5 5 5 4 4 4 4 3 3 3 2 2
5 5 5 5 5 5 5 5 5 5 5 5 5 5 5 5 5 5 5 5 5 4 4 3 3 3 3 3 3 2 2 2 1
5 5 5 4 4 4 5 5 5 5 5 5 4 5 5 5 4 4 4 4 4 3 3 3 3 3 2 2 2 1 1 1 1
4 4 4 4 4 4 4 4 4 4 4 4 3 4 4 4 4 4 3 3 3 3 3 2 2 2 2 1 1 0 -0 -0 -0
3 3 4 4 4 4 4 3 3 3 3 3 4 3 3 3 3 3 3 2 2 2 2 2 1 1 1 1 0 -0 -1 -1 -1
3 3 3 3 3 3 3 3 3 3 3 3 3 3 3 2 2 2 2 1 1 1 0 0 0 0 0 0 0 -0 -1 -1 -2
Height
3170 3172 3172 3174 3175 3176 3178 3179 3180 3181 3182 3183 3184 3184 3185 3185 3185 3185 3185 3185 3185 3185 3185 3186 3186 3186 3186 3185 3185 3185 3186 3185 3185
3169 3171 3172 3174 3175 3176 3178 3179 3180 3181 3182 3183 3184 3185 3186 3186 3186 3186 3185 3186 3186 3186 3186 3187 3187 3187 3187 3187 3187 3187 3187 3186 3186
3168 3170 3172 3173 3174 3176 3177 3179 3180 3181 3182 3183 3184 3185 3186 3187 3187 3186 3186 3187 3187 3187 3187 3187 3188 3188 3188 3188 3188 3188 3187 3187 3186
3167 3169 3171 3172 3174 3175 3177 3178 3180 3181 3182 3183 3184 3185 3186 3187 3187 3186 3187 3188 3188 3188 3188 3189 3189 3189 3188 3189 3188 3188 3188 3187 3187
3165 3168 3170 3171 3173 3175 3177 3179 3180 3181 3182 3183 3184 3185 3186 3187 3187 3187 3187 3188 3188 3189 3189 3189 3189 3189 3190 3189 3189 3189 3189 3188 3187
3164 3167 3169 3171 3173 3175 3176 3179 3180 3181 3182 3183 3184 3185 3186 3186 3188 3188 3188 3188 3189 3189 3189 3190 3190 3190 3190 3190 3190 3189 3188 3187 3186
3163 3165 3168 3170 3172 3174 3176 3177 3179 3181 3182 3183 3184 3185 3186 3187 3188 3188 3188 3189 3189 3190 3190 3190 3190 3191 3191 3191 3190 3189 3188 3187 3186
3162 3164 3166 3169 3171 3173 3175 3176 3178 3180 3182 3183 3184 3184 3185 3186 3187 3188 3188 3188 3189 3189 3190 3190 3190 3189 3189 3188 3188 3188 3188 3187 3186
3160 3163 3166 3168 3170 3172 3173 3176 3177 3179 3180 3182 3182 3184 3184 3185 3186 3187 3187 3187 3188 3188 3188 3188 3188 3187 3187 3187 3187 3186 3185 3184 3183
3159 3162 3164 3167 3168 3171 3173 3174 3176 3178 3178 3180 3181 3182 3183 3183 3184 3185 3185 3186 3186 3186 3187 3186 3186 3186 3185 3185 3185 3184 3183 3182 3181
3157 3160 3162 3164 3167 3169 3171 3173 3175 3176 3177 3178 3179 3180 3181 3181 3182 3183 3183 3184 3184 3184 3184 3184 3183 3183 3182 3182 3181 3180 3180 3179 3178
3154 3157 3160 3162 3165 3167 3168 3170 3172 3174 3175 3176 3177 3178 3179 3179 3180 3181 3182 3182 3182 3182 3181 3180 3181 3181 3180 3179 3178 3178 3177 3176 3174
3151 3154 3157 3159 3162 3164 3166 3167 3169 3171 3172 3174 3175 3176 3177 3178 3178 3178 3179 3179 3179 3179 3180 3180 3179 3178 3177 3176 3176 3176 3174 3173 3172
3148 3151 3153 3156 3158 3160 3163 3165 3166 3167 3169 3170 3172 3173 3173 3174 3175 3175 3175 3176 3175 3175 3175 3175 3175 3175 3175 3175 3174 3172 3171 3170 3168
3144 3146 3149 3152 3154 3156 3158 3160 3162 3164 3165 3166 3167 3169 3170 3170 3171 3171 3172 3172 3172 3171 3171 3170 3171 3171 3171 3170 3169 3168 3166 3164 3162
3141 3143 3144 3147 3150 3152 3154 3155 3157 3159 3160 3162 3163 3164 3165 3166 3166 3167 3168 3167 3167 3168 3168 3167 3167 3166 3166 3165 3163 3162 3160 3158 3156
3136 3138 3140 3142 3145 3147 3149 3150 3152 3154 3156 3157 3158 3159 3160 3160 3162 3162 3163 3163 3163 3162 3161 3160 3160 3159 3159 3159 3157 3156 3154 3152 3150
3131 3133 3136 3138 3140 3141 3143 3145 3147 3149 3150 3151 3152 3152 3154 3156 3156 3157 3156 3156 3156 3156 3155 3154 3154 3153 3153 3152 3150 3149 3147 3146 3144
3125 3128 3130 3132 3134 3135 3138 3139 3141 3141 3143 3144 3145 3147 3148 3149 3150 3150 3150 3150 3150 3149 3149 3148 3148 3147 3147 3146 3145 3144 3142 3140 3138
3118 3120 3122 3124 3126 3129 3130 3132 3133 3134 3136 3138 3139 3140 3141 3141 3142 3142 3143 3142 3142 3142 3142 3142 3141 3140 3140 3139 3138 3136 3135 3133 3131
Wind_Speed
13 13 13 13 13 15 14 15 14 14 13 11 10 8 7 5 4 2 2 3 3 4 5 5 4 4 3 4 5 4 3 2 3
14 13 14 15 15 16 15 14 14 13 12 11 9 7 5 4 3 2 3 6 6 7 6 6 5 4 4 3 3 2 2 1 1
15 15 15 16 16 16 16 15 14 13 11 10 8 7 4 2 2 3 3 5 5 7 7 6 5 4 3 3 1 1 0 1 2
17 16 17 17 17 16 16 15 14 13 11 10 8 7 5 3 2 3 3 4 5 5 4 4 3 3 2 1 1 2 2 3 3
18 18 18 18 18 17 16 15 15 13 12 10 8 8 6 4 3 3 4 4 5 5 4 4 3 2 2 1 1 2 3 4 4
19 19 19 19 19 18 16 15 15 13 11 9 8 8 8 7 5 5 5 4 4 4 4 3 3 2 1 0 1 2 3 4 4
19 19 20 20 19 18 17 16 15 13 11 9 8 8 8 7 7 6 6 6 5 4 3 3 1 1 1 2 3 4 5 6 7
20 20 20 20 20 19 18 18 15 13 12 12 11 10 9 8 8 7 6 6 5 4 3 3 3 2 3 4 5 6 8 9 10
21 21 20 20 20 20 20 18 17 16 14 13 12 12 11 9 9 8 8 7 7 7 7 6 5 5 6 7 7 8 9 11 12
22 22 21 22 22 21 21 20 19 17 16 15 13 13 12 12 12 11 11 10 10 9 8 7 7 8 8 9 9 11 12 14 15
23 23 23 23 23 22 22 21 20 18 17 16 16 15 15 14 13 13 12 12 12 11 11 10 10 11 11 11 11 12 13 15 17
25 24 23 23 23 23 23 22 20 19 18 17 17 17 17 16 15 14 13 13 14 14 14 13 13 12 12 13 13 14 16 17 18
26 25 25 24 23 23 23 23 22 20 19 19 19 18 17 16 15 15 16 15 16 16 15 16 15 15 15 15 16 17 18 20 22
27 26 25 25 25 25 25 23 23 22 22 21 20 20 19 18 18 18 18 17 18 18 18 19 20 19 18 18 19 19 21 22 23
28 28 26 26 26 26 26 25 25 24 24 24 23 22 21 20 20 19 20 20 21 22 22 22 21 22 20 20 21 23 22 23 25
28 28 28 28 27 26 26 27 26 26 26 24 23 22 22 22 21 21 22 23 24 24 24 24 23 23 23 24 24 25 25 26 27
30 30 30 29 27 27 27 28 28 28 26 25 24 25 25 25 23 24 24 25 25 25 26 26 26 26 26 26 27 27 28 29 29
32 31 30 29 29 30 30 30 29 28 28 27 27 28 27 24 25 25 26 27 27 28 28 29 28 28 29 28 28 29 29 31 31
32 31 32 32 32 32 32 31 30 32 31 31 30 28 28 27 28 28 28 29 28 29 30 31 30 31 31 31 31 31 31 31 32
34 34 34 34 34 33 33 33 34 33 33 31 30 31 30 31 31 31 30 30 30 31 31 32 32 33 32 33 33 34 35 35 34
Wind_Direction
200 192 189 182 175 174 168 163 161 162 160 159 159 157 152 153 160 178 189 144 154 129 132 135 159 154 126 109 114 111 98 79 49
196 188 182 176 176 175 167 164 164 166 169 165 163 161 160 162 171 179 177 141 151 137 141 138 149 149 137 130 135 129 114 113 37
191 186 179 176 178 177 168 168 168 171 172 166 162 152 146 143 122 104 109 138 141 139 143 146 151 151 153 139 133 112 102 48 9
187 184 180 176 178 179 174 174 170 176 172 169 163 147 141 139 123 117 129 139 141 131 130 136 143 137 133 118 88 47 359 18 7
184 184 181 178 180 181 181 176 175 183 176 173 166 155 144 150 157 148 142 143 148 145 147 149 151 159 144 115 33 13 358 352 350
187 184 182 182 182 184 184 181 182 185 181 179 173 168 156 169 176 176 157 155 164 166 163 162 176 175 187 315 340 341 332 323 321
191 186 184 185 184 187 183 187 188 189 188 188 185 181 175 176 182 186 172 177 180 180 175 192 210 254 311 330 325 319 314 314 320
194 191 190 188 186 190 188 192 191 196 199 195 191 191 192 189 187 197 194 192 194 202 212 221 240 272 290 291 298 305 306 312 314
196 194 192 190 192 192 194 199 196 200 203 205 199 198 200 203 207 201 211 208 214 218 222 232 240 256 272 283 288 293 301 307 310
197 196 194 196 196 198 200 202 202 206 206 208 212 212 209 210 216 213 216 220 225 231 236 242 250 260 270 277 290 301 308 312 313
198 199 198 200 201 201 206 209 210 211 214 215 217 217 219 221 224 225 226 231 235 237 238 243 250 257 266 277 288 297 305 309 310
202 202 203 205 206 208 209 214 219 220 221 223 227 226 225 227 229 235 237 241 243 247 249 250 257 267 275 283 291 301 304 305 306
207 207 207 207 208 212 216 217 220 224 227 228 230 232 235 237 239 242 246 250 257 262 268 271 271 273 276 286 295 299 302 306 308
209 210 213 212 211 214 218 221 223 224 227 231 234 235 237 240 244 249 254 257 261 265 270 274 277 280 286 293 297 300 303 305 307
213 213 214 216 216 216 219 222 225 228 230 231 235 239 242 244 248 254 260 264 266 269 270 273 279 284 288 291 295 297 299 299 300
218 218 216 218 220 219 220 224 228 231 233 237 240 244 247 251 253 257 261 263 268 273 277 280 282 283 287 290 291 291 292 294 294
223 223 223 222 223 226 227 227 230 233 236 238 239 243 246 250 255 258 262 266 268 271 272 274 276 279 280 284 286 288 291 293 294
225 227 228 228 227 228 229 231 234 237 238 239 242 244 251 254 257 261 262 264 265 267 271 272 274 277 278 279 280 284 288 290 294
228 230 231 231 232 232 235 236 237 238 238 240 243 248 252 255 257 258 261 263 265 267 269 271 274 276 278 281 283 285 287 289 291
229 230 231 232 234 237 238 239 240 243 244 245 246 248 250 252 255 257 258 261 264 265 267 269 271 273 276 279 281 284 285 287 288